Regional Weather Roundup
Issued by NWS

Home | Current Version | Previous Version | Graphics & Text | Print | Product List | Glossary On
Versions: 1 2 3 4 5 6 7 8 9 10 11 12 13 14 15 16 17 18 19 20 21 22 23 24 25 26 27 28 29 30 31 32 33 34 35 36 37 38 39 40 41 42 43 44 45 46 47 48 49 50
306
ASUS44 KLIX 172305
RWRLA
LOUISIANA WEATHER ROUNDUP
NATIONAL WEATHER SERVICE NEW ORLEANS LA
500 PM CST WED DEC 17 2014

NOTE: "FAIR" INDICATES FEW OR NO CLOUDS BELOW 12,000 FEET WITH NO
      SIGNIFICANT WEATHER AND/OR OBSTRUCTIONS TO VISIBILITY.
      SKY/WX - SKY CONDITION AND SIGNIFICANT WEATHER.
      TMP - AIR TEMPERATURE.    DP   - DEWPOINT TEMPERATURE.
      RH  - RELATIVE HUMIDITY.  PRES - PRESSURE.
      HX  - HEAT INDEX.         WCI  - WIND CHILL INDEX.

*  THESE STATIONS ARE NOT NWS OR FAA STATIONS AND ARE NOT UNDER
   NWS QUALITY CONTROL.

LAZ040-048-061>063-065-066-069-180000-
SOUTHEAST LOUISIANA

CITY           SKY/WX    TMP DP  RH WIND       PRES   REMARKS
N.O. AUDUBON     N/A     56  41  58 MISG        N/A
N.O. INTL ARPT MOCLDY    55  39  54 NE3       30.19S
N.O. LAKEFRONT PTCLDY    58  41  53 NE3       30.19F
N.O. DOWNTOWN* FAIR      57  37  47 NE5       30.19S
SLIDELL        PTCLDY    55  42  61 SW3       30.18F
BATON ROUGE    CLEAR     56  39  53 E6        30.17F
BOOTHVILLE     PTCLDY    56  49  77 N5        30.20R
BELLE CHASSE   MOCLDY    56  40  55 E6        30.18S
BOGALUSA*        N/A     56  43  61 CALM      30.20F
GALLIANO*      MOCLDY    59  46  60 MISG      30.19S
NEW ROADS*     FAIR      56  40  53 CALM      30.18S
GONZALES*      FAIR      57  41  54 CALM      30.18S
HAMMOND*       NOT AVBL
HOUMA*         PTCLDY    57  43  58 NE5       30.18R
PORT FOURCHON* CLEAR     59  48  67 NE9       30.21S

$$

LAZ041-044-053-054-180000-
SOUTHWEST LOUISIANA

CITY           SKY/WX    TMP DP  RH WIND       PRES   REMARKS
LAKE CHARLES   PTCLDY    58  43  57 E6        30.16S
LAFAYETTE      CLEAR     59  40  49 CALM      30.17S
PATTERSON      CLEAR     57  43  58 NE7       30.18F
SALT POINT       N/A     58  47  66 CALM      30.17R
NEW IBERIA     PTCLDY    59  40  49 E6        30.17F
CHENAULT AIRPK PTCLDY    57  43  58 E3        30.17R

$$

LAZ027-028-180000-
CENTRAL LOUISIANA

CITY           SKY/WX    TMP DP  RH WIND       PRES   REMARKS
FORT POLK      CLOUDY    52  44  72 E7        30.13F
ALEXANDRIA INT PTCLDY    54  40  59 E6        30.16F
ALEXANDRIA     MOCLDY    54  40  59 E3        30.18S

$$

LAZ001-002-180000-
NORTHWEST LOUISIANA

CITY           SKY/WX    TMP DP  RH WIND       PRES   REMARKS
SHREVEPORT     CLOUDY    48  37  65 E12       30.15F
BARKSDALE AFB  NOT AVBL
DTN SHREVEPORT CLOUDY    46  35  65 E7        30.16F

$$

LAZ014-016-180000-
NORTHEAST LOUISIANA

CITY           SKY/WX    TMP DP  RH WIND       PRES   REMARKS
MONROE         MOCLDY    49  39  68 E5        30.21F
TALLULAH       CLOUDY    53  39  59 N5        30.20F

$$




USA.gov is the U.S. government's official web portal to all federal, state and local government web resources and services.